SPACEBEE-59 (47428 NORAD) Tracking and Keplerian Element Data

This shows tracking and keplerian element data for the satellite.

Feedback or suggestion? Click here.




ElementValue
Catalog47428
NameSPACEBEE-59
Epoch Orbit1295
Epoch Day101.86471639
Epoch Year2021
RAAN164.4202
Inclination97.4972
Eccentricity0.0013468
Argument of Perigee339.5906
Mean Anonmoly20.4786
Mean Motion15.14198116
Decay Rate2.377E-05
L11 47428U 21006R 21101.86471639 .00002377 00000-0 13357-3 0 9994
L22 47428 97.4972 164.4202 0013468 339.5906 20.4786 15.14198116 12952

Live tracking and technical data element details for SPACEBEE-59 (NORAD 47428). SPACEBEE-59 can be tracked NOW for your location showing map with azimuth and elevation plus other details from your city location.

Track the satellite on the map from your city or location and see movement details for azimuth, elevation, latitude, longitude, range, height, and movement on the map or in text.







IsCatalogInMostPopularTable: catalog: 47428, numindb: 14
Update: records affected: 1



GetName: 47428 SPACEBEE-59

Hit Count: updated at: Tue, 13 Apr 2021 03:42:57 GMT